| time (UTC) | temp F | wind direction | speed MPH | gust MPH | rain 1hr in | rain 24hr in | rain mn in | humidity % | barometer mb |
| 20260507150046 | 50 | 113 | 6.0 | 12.0 | 0.02 | 0.31 | 0.11 | 98 | 1015.3 |
| 20260507144543 | 50 | 49 | 4.0 | 10.0 | 0.03 | 0.32 | 0.11 | 98 | 1015.0 |
| 20260507143041 | 50 | 55 | 5.0 | 10.0 | 0.02 | 0.31 | 0.10 | 98 | 1015.1 |
| 20260507141543 | 51 | 64 | 6.0 | 10.0 | 0.02 | 0.31 | 0.10 | 98 | 1015.0 |
| 20260507140048 | 52 | 53 | 2.0 | 6.0 | 0.01 | 0.30 | 0.09 | 98 | 1015.1 |
| 20260507134545 | 51 | 35 | 2.0 | 8.0 | 0.00 | 0.30 | 0.08 | 98 | 1015.0 |
| 20260507133043 | 51 | 80 | 5.0 | 8.0 | 0.00 | 0.30 | 0.08 | 98 | 1014.6 |
| 20260507131603 | 51 | 75 | 5.0 | 9.0 | 0.01 | 0.30 | 0.08 | 98 | 1014.7 |
| 20260507130042 | 51 | 46 | 2.0 | 8.0 | 0.01 | 0.30 | 0.08 | 98 | 1014.6 |
| 20260507124543 | 51 | 83 | 5.0 | 8.0 | 0.01 | 0.35 | 0.08 | 98 | 1014.7 |
| 20260507123044 | 51 | 84 | 4.0 | 10.0 | 0.02 | 0.35 | 0.08 | 98 | 1014.6 |
| 20260507121544 | 51 | 82 | 4.0 | 8.0 | 0.01 | 0.34 | 0.07 | 98 | 1014.6 |
| 20260507120051 | 51 | 72 | 4.0 | 8.0 | 0.01 | 0.34 | 0.07 | 98 | 1014.6 |
| 20260507114546 | 52 | 86 | 0.0 | 3.0 | 0.01 | 0.34 | 0.07 | 98 | 1014.7 |
| 20260507113046 | 52 | 56 | 0.0 | 3.0 | 0.00 | 0.33 | 0.06 | 98 | 1014.9 |
| 20260507111547 | 52 | 74 | 1.0 | 4.0 | 0.00 | 0.33 | 0.06 | 98 | 1014.6 |
| 20260507110046 | 52 | 55 | 4.0 | 7.0 | 0.00 | 0.33 | 0.06 | 98 | 1014.2 |
| 20260507104545 | 53 | 54 | 3.0 | 10.0 | 0.00 | 0.33 | 0.06 | 98 | 1013.9 |
| 20260507103044 | 53 | 75 | 5.0 | 11.0 | 0.00 | 0.33 | 0.06 | 98 | 1013.5 |
| 20260507101549 | 54 | 88 | 6.0 | 9.0 | 0.00 | 0.33 | 0.06 | 98 | 1013.5 |
| 20260507100047 | 54 | 71 | 3.0 | 8.0 | 0.02 | 0.33 | 0.06 | 98 | 1013.6 |
| 20260507094543 | 54 | 89 | 5.0 | 8.0 | 0.02 | 0.33 | 0.06 | 98 | 1013.5 |
| 20260507093052 | 55 | 85 | 4.0 | 8.0 | 0.03 | 0.33 | 0.06 | 98 | 1013.5 |
| 20260507091545 | 56 | 32 | 4.0 | 7.0 | 0.04 | 0.33 | 0.06 | 98 | 1013.4 |
| 20260507090042 | 56 | 49 | 5.0 | 10.0 | 0.03 | 0.31 | 0.04 | 98 | 1013.4 |
| 20260507084549 | 57 | 53 | 6.0 | 13.0 | 0.03 | 0.31 | 0.04 | 98 | 1013.6 |
| 20260507083044 | 58 | 34 | 1.0 | 6.0 | 0.02 | 0.30 | 0.03 | 98 | 1013.5 |
| 20260507081543 | 58 | 49 | 3.0 | 6.0 | 0.01 | 0.29 | 0.02 | 98 | 1013.2 |
| 20260507080105 | 58 | 73 | 3.0 | 6.0 | 0.00 | 0.28 | 0.01 | 98 | 1013.7 |
| 20260507074547 | 59 | 73 | 3.0 | 6.0 | 0.00 | 0.29 | 0.01 | 98 | 1013.8 |
| 20260507073043 | 60 | 355 | 1.0 | 4.0 | 0.00 | 0.29 | 0.01 | 98 | 1013.5 |
| 20260507071603 | 60 | 354 | 2.0 | 7.0 | 0.00 | 0.29 | 0.01 | 98 | 1013.4 |
| 20260507070045 | 60 | 292 | 0.0 | 7.0 | 0.01 | 0.29 | 0.01 | 98 | 1013.5 |
| 20260507064550 | 60 | 335 | 1.0 | 5.0 | 0.01 | 0.29 | 0.01 | 98 | 1014.0 |
| 20260507063047 | 60 | 273 | 2.0 | 6.0 | 0.01 | 0.29 | 0.01 | 98 | 1013.9 |
| 20260507061545 | 60 | 293 | 2.0 | 5.0 | 0.01 | 0.29 | 0.01 | 98 | 1014.2 |
| 20260507060045 | 60 | 337 | 1.0 | 4.0 | 0.00 | 0.28 | 0.00 | 98 | 1014.6 |
| 20260507054547 | 60 | 274 | 4.0 | 7.0 | 0.00 | 0.28 | 0.00 | 98 | 1014.7 |
| 20260507053115 | 60 | 296 | 3.0 | 5.0 | 0.00 | 0.28 | 0.00 | 98 | 1014.6 |
| 20260507051600 | 60 | 278 | 2.0 | 5.0 | 0.00 | 0.28 | 0.00 | 98 | 1014.3 |
| 20260507050044 | 60 | 262 | 3.0 | 6.0 | 0.00 | 0.28 | 0.00 | 98 | 1014.5 |
| 20260507044547 | 60 | 262 | 3.0 | 5.0 | 0.00 | 0.28 | 0.00 | 98 | 1014.7 |
| 20260507043044 | 60 | 266 | 2.0 | 5.0 | 0.00 | 0.28 | 0.00 | 98 | 1014.8 |
| 20260507041547 | 60 | 282 | 4.0 | 9.0 | 0.00 | 0.28 | 0.00 | 98 | 1015.2 |
| 20260507040046 | 60 | 257 | 2.0 | 8.0 | 0.00 | 0.28 | 0.00 | 98 | 1015.4 |
| 20260507034542 | 60 | 312 | 6.0 | 10.0 | 0.00 | 0.28 | 0.28 | 98 | 1015.5 |
| 20260507033047 | 61 | 284 | 6.0 | 10.0 | 0.00 | 0.28 | 0.28 | 97 | 1015.6 |
| 20260507031540 | 61 | 281 | 5.0 | 12.0 | 0.00 | 0.28 | 0.28 | 97 | 1015.5 |
| 20260507030046 | 61 | 273 | 5.0 | 10.0 | 0.00 | 0.28 | 0.28 | 97 | 1015.6 |
| 20260507024545 | 60 | 295 | 3.0 | 6.0 | 0.01 | 0.28 | 0.28 | 97 | 1015.3 |
| 20260507023041 | 61 | 279 | 4.0 | 8.0 | 0.04 | 0.28 | 0.28 | 97 | 1015.2 |
| 20260507021544 | 61 | 320 | 1.0 | 7.0 | 0.13 | 0.28 | 0.28 | 97 | 1014.8 |
| 20260507020049 | 61 | 210 | 4.0 | 11.0 | 0.13 | 0.28 | 0.28 | 97 | 1015.2 |
| 20260507014554 | 61 | 233 | 3.0 | 12.0 | 0.12 | 0.27 | 0.27 | 96 | 1015.5 |
| 20260507013048 | 61 | 258 | 7.0 | 12.0 | 0.11 | 0.24 | 0.24 | 95 | 1016.5 |
| 20260507011542 | 61 | 234 | 4.0 | 8.0 | 0.03 | 0.15 | 0.15 | 94 | 1015.9 |
| 20260507010046 | 62 | 320 | 3.0 | 6.0 | 0.03 | 0.15 | 0.15 | 94 | 1015.7 |
| 20260507004552 | 62 | 269 | 3.0 | 5.0 | 0.04 | 0.15 | 0.15 | 94 | 1015.4 |
| 20260507003042 | 63 | 269 | 2.0 | 6.0 | 0.02 | 0.13 | 0.13 | 93 | 1015.5 |
| 20260507001550 | 63 | 278 | 4.0 | 7.0 | 0.01 | 0.12 | 0.12 | 93 | 1015.3 |
| 20260507000046 | 64 | 269 | 4.0 | 7.0 | 0.01 | 0.12 | 0.12 | 91 | 1014.8 |
| 20260506234544 | 64 | 262 | 7.0 | 13.0 | 0.00 | 0.11 | 0.11 | 89 | 1014.9 |
| 20260506233042 | 65 | 269 | 5.0 | 11.0 | 0.00 | 0.11 | 0.11 | 88 | 1014.7 |
| 20260506231549 | 65 | 285 | 6.0 | 15.0 | 0.00 | 0.11 | 0.11 | 87 | 1014.7 |
| 20260506230046 | 66 | 280 | 9.0 | 17.0 | 0.00 | 0.11 | 0.11 | 85 | 1014.6 |
| 20260506224543 | 66 | 300 | 6.0 | 12.0 | 0.00 | 0.11 | 0.11 | 85 | 1014.3 |
| 20260506223044 | 67 | 276 | 6.0 | 11.0 | 0.00 | 0.11 | 0.11 | 87 | 1014.4 |
| 20260506221543 | 67 | 283 | 5.0 | 9.0 | 0.00 | 0.11 | 0.11 | 87 | 1014.4 |
| 20260506220047 | 67 | 311 | 2.0 | 4.0 | 0.00 | 0.11 | 0.11 | 87 | 1014.1 |
| 20260506214549 | 67 | 210 | 4.0 | 9.0 | 0.00 | 0.11 | 0.11 | 87 | 1013.8 |
| 20260506213042 | 67 | 283 | 4.0 | 8.0 | 0.00 | 0.11 | 0.11 | 85 | 1014.2 |
| 20260506211546 | 67 | 290 | 7.0 | 17.0 | 0.00 | 0.11 | 0.11 | 83 | 1014.4 |
| 20260506210044 | 68 | 269 | 7.0 | 14.0 | 0.00 | 0.11 | 0.11 | 82 | 1014.4 |
| 20260506204550 | 69 | 286 | 4.0 | 11.0 | 0.00 | 0.11 | 0.11 | 82 | 1014.7 |
| 20260506203040 | 68 | 305 | 6.0 | 15.0 | 0.00 | 0.11 | 0.11 | 82 | 1014.7 |
| 20260506201543 | 68 | 293 | 3.0 | 10.0 | 0.00 | 0.11 | 0.11 | 84 | 1014.6 |
| 20260506200049 | 68 | 295 | 11.0 | 15.0 | 0.00 | 0.11 | 0.11 | 83 | 1014.7 |
| 20260506194544 | 68 | 288 | 3.0 | 12.0 | 0.00 | 0.11 | 0.11 | 83 | 1014.6 |
| 20260506193042 | 68 | 297 | 4.0 | 10.0 | 0.00 | 0.11 | 0.11 | 82 | 1014.9 |
| 20260506191545 | 69 | 300 | 7.0 | 15.0 | 0.00 | 0.11 | 0.11 | 80 | 1015.3 |
| 20260506190046 | 70 | 266 | 5.0 | 17.0 | 0.00 | 0.11 | 0.11 | 80 | 1015.1 |
| 20260506184546 | 70 | 5 | 4.0 | 14.0 | 0.00 | 0.11 | 0.11 | 81 | 1014.9 |
| 20260506183051 | 69 | 269 | 5.0 | 12.0 | 0.00 | 0.11 | 0.11 | 80 | 1014.5 |
| 20260506181554 | 69 | 257 | 4.0 | 19.0 | 0.00 | 0.11 | 0.11 | 84 | 1014.5 |
| 20260506180104 | 68 | 287 | 5.0 | 11.0 | 0.00 | 0.11 | 0.11 | 83 | 1014.6 |
| 20260506174542 | 67 | 315 | 5.0 | 14.0 | 0.00 | 0.11 | 0.11 | 83 | 1014.4 |
| 20260506173101 | 66 | 290 | 7.0 | 11.0 | 0.00 | 0.11 | 0.11 | 87 | 1014.6 |
| 20260506171545 | 65 | 276 | 6.0 | 15.0 | 0.01 | 0.11 | 0.11 | 89 | 1014.5 |
| 20260506170045 | 64 | 231 | 7.0 | 10.0 | 0.01 | 0.11 | 0.11 | 92 | 1014.7 |
| 20260506164542 | 64 | 205 | 6.0 | 15.0 | 0.02 | 0.11 | 0.11 | 94 | 1015.0 |
| 20260506163044 | 63 | 278 | 5.0 | 11.0 | 0.02 | 0.11 | 0.11 | 94 | 1015.2 |
| 20260506161553 | 63 | 270 | 9.0 | 19.0 | 0.01 | 0.10 | 0.10 | 93 | 1015.8 |
| 20260506160046 | 63 | 278 | 12.0 | 23.0 | 0.02 | 0.10 | 0.10 | 93 | 1016.3 |
| 20260506154549 | 63 | 282 | 13.0 | 25.0 | 0.01 | 0.09 | 0.09 | 92 | 1016.2 |
| 20260506153046 | 63 | 287 | 12.0 | 20.0 | 0.01 | 0.09 | 0.09 | 93 | 1016.5 |
| 20260506151546 | 64 | 286 | 16.0 | 32.0 | 0.01 | 0.09 | 0.09 | 92 | 1016.5 |